When you browse on this site, cookies collect data to enhance your experience and personalize the content and advertising you see.
Visit our Privacy Policy to learn more. By continuing to use the site, you agree to this use of cookies and data.
  • en France
  • Liste des pays
  • À 7 jours
  • Température de l'eau
  • Carte satellitaire
  • Carte météo
  • Widgets météo
  • user-avatar
    Se connecter

    Météo par heure à Abrest

    Ce jour, 21 Juillet, Dimanche

    Heure Température Précipitation Vent Pression Humidité
    00:00 +20°C° 0 mm 1 m/s 736 mmHg 95%
    01:00 +20°C° 0 mm 1 m/s 736 mmHg 95%
    02:00 +20°C° 0 mm 1 m/s 736 mmHg 95%
    03:00 +18°C° 0 mm 0 m/s 736 mmHg 94%
    04:00 +18°C° 0 mm 0 m/s 736 mmHg 94%
    05:00 +18°C° 0 mm 0 m/s 737 mmHg 94%
    06:00 +19°C° 0 mm 0 m/s 737 mmHg 92%
    07:00 +21°C° 0 mm 0 m/s 737 mmHg 85%
    08:00 +22°C° 0 mm 0 m/s 738 mmHg 77%
    09:00 +24°C° 0 mm 0 m/s 738 mmHg 70%
    10:00 +27°C° 0 mm 1 m/s 738 mmHg 65%
    11:00 +28°C° 0 mm 1 m/s 737 mmHg 60%
    12:00 +30°C° 0 mm 1 m/s 737 mmHg 55%
    13:00 +30°C° 0 mm 1 m/s 737 mmHg 53%
    14:00 +30°C° 0 mm 1 m/s 737 mmHg 52%
    15:00 +30°C° 0 mm 1 m/s 737 mmHg 51%
    16:00 +30°C° 0 mm 1 m/s 737 mmHg 55%
    17:00 +29°C° 0 mm 1 m/s 737 mmHg 58%
    18:00 +28°C° 0 mm 1 m/s 736 mmHg 62%
    19:00 +26°C° 0 mm 1 m/s 737 mmHg 65%
    20:00 +24°C° 0 mm 1 m/s 737 mmHg 69%
    21:00 +22°C° 0 mm 1 m/s 738 mmHg 72%
    22:00 +21°C° 0 mm 1 m/s 738 mmHg 73%
    23:00 +21°C° 0 mm 1 m/s 738 mmHg 74%

    Demain, 22 Juillet, Lundi

    Heure Température Précipitation Vent Pression Humidité
    00:00 +18°C° 0 mm 0 m/s 738 mmHg 75%
    01:00 +18°C° 0 mm 0 m/s 738 mmHg 77%
    02:00 +17°C° 0 mm 0 m/s 737 mmHg 79%
    03:00 +17°C° 0 mm 0 m/s 737 mmHg 81%
    04:00 +18°C° 0 mm 0 m/s 737 mmHg 80%
    05:00 +19°C° 0 mm 0 m/s 738 mmHg 78%
    06:00 +20°C° 0 mm 0 m/s 738 mmHg 76%
    07:00 +22°C° 0 mm 0 m/s 738 mmHg 70%
    08:00 +24°C° 0 mm 0 m/s 738 mmHg 64%
    09:00 +29°C° 0 mm 1 m/s 738 mmHg 58%
    10:00 +30°C° 0 mm 1 m/s 738 mmHg 54%
    11:00 +31°C° 0 mm 1 m/s 738 mmHg 51%
    12:00 +32°C° 0 mm 2 m/s 738 mmHg 47%
    13:00 +33°C° 0 mm 1 m/s 737 mmHg 44%
    14:00 +33°C° 0 mm 1 m/s 737 mmHg 41%
    15:00 +34°C° 0 mm 1 m/s 737 mmHg 38%
    16:00 +33°C° 0 mm 1 m/s 736 mmHg 44%
    17:00 +32°C° 0 mm 1 m/s 736 mmHg 50%
    18:00 +30°C° 0 mm 1 m/s 736 mmHg 56%
    19:00 +28°C° 0 mm 1 m/s 736 mmHg 61%
    20:00 +26°C° 0 mm 1 m/s 736 mmHg 66%
    21:00 +24°C° 0 mm 1 m/s 736 mmHg 71%
    22:00 +24°C° 0 mm 1 m/s 736 mmHg 74%
    23:00 +23°C° 0 mm 1 m/s 736 mmHg 76%

    Après-demain, 23 Juillet, Mardi

    Heure Température Précipitation Vent Pression Humidité
    00:00 +22°C° 0 mm 1 m/s 736 mmHg 78%
    01:00 +22°C° 0 mm 1 m/s 736 mmHg 80%
    02:00 +22°C° 0 mm 1 m/s 736 mmHg 82%
    03:00 +21°C° 0 mm 1 m/s 735 mmHg 83%
    04:00 +22°C° 0 mm 1 m/s 735 mmHg 81%
    05:00 +23°C° 0 mm 1 m/s 735 mmHg 79%
    06:00 +24°C° 0 mm 1 m/s 735 mmHg 77%
    07:00 +26°C° 0 mm 1 m/s 735 mmHg 70%
    08:00 +29°C° 0 mm 1 m/s 735 mmHg 62%
    09:00 +31°C° 0 mm 1 m/s 735 mmHg 54%
    10:00 +33°C° 0 mm 1 m/s 735 mmHg 49%
    11:00 +34°C° 0 mm 1 m/s 735 mmHg 44%
    12:00 +36°C° 0 mm 1 m/s 734 mmHg 38%
    13:00 +37°C° 0 mm 1 m/s 734 mmHg 34%
    14:00 +37°C° 0 mm 1 m/s 734 mmHg 30%
    15:00 +39°C° 0 mm 1 m/s 733 mmHg 26%
    16:00 +36°C° 0 mm 1 m/s 733 mmHg 33%
    17:00 +34°C° 0 mm 1 m/s 733 mmHg 41%
    18:00 +33°C° 0 mm 1 m/s 733 mmHg 48%
    19:00 +31°C° 0 mm 1 m/s 733 mmHg 52%
    20:00 +29°C° 0 mm 1 m/s 733 mmHg 56%
    21:00 +27°C° 0 mm 1 m/s 733 mmHg 60%
    22:00 +26°C° 0 mm 1 m/s 733 mmHg 61%
    23:00 +26°C° 0 mm 1 m/s 733 mmHg 61%

    24 Juillet, Mercredi

    Heure Température Précipitation Vent Pression Humidité
    00:00 +25°C° 0 mm 2 m/s 733 mmHg 62%
    01:00 +25°C° 0 mm 1 m/s 733 mmHg 62%
    02:00 +25°C° 0 mm 1 m/s 732 mmHg 62%
    03:00 +25°C° 0 mm 1 m/s 732 mmHg 62%
    04:00 +25°C° 0 mm 1 m/s 733 mmHg 63%
    05:00 +25°C° 0 mm 1 m/s 733 mmHg 65%
    06:00 +26°C° 0 mm 1 m/s 733 mmHg 66%
    07:00 +28°C° 0 mm 1 m/s 733 mmHg 58%
    08:00 +31°C° 0 mm 1 m/s 733 mmHg 50%
    09:00 +33°C° 0 mm 1 m/s 733 mmHg 42%
    10:00 +35°C° 0 mm 1 m/s 733 mmHg 39%
    11:00 +36°C° 0 mm 1 m/s 733 mmHg 35%
    12:00 +39°C° 0 mm 1 m/s 733 mmHg 32%
    13:00 +39°C° 0 mm 1 m/s 732 mmHg 31%
    14:00 +39°C° 0 mm 1 m/s 732 mmHg 30%
    15:00 +39°C° 0 mm 1 m/s 731 mmHg 29%
    16:00 +35°C° 0.5 mm 2 m/s 731 mmHg 39%
    17:00 +31°C° 0.5 mm 2 m/s 731 mmHg 49%
    18:00 +27°C° 0.5 mm 3 m/s 731 mmHg 58%
    19:00 +26°C° 0.1 mm 3 m/s 731 mmHg 59%
    20:00 +26°C° 0.1 mm 2 m/s 731 mmHg 61%
    21:00 +25°C° 0.1 mm 1 m/s 732 mmHg 62%
    22:00 +25°C° 0 mm 2 m/s 731 mmHg 62%
    23:00 +25°C° 0 mm 2 m/s 731 mmHg 63%

    25 Juillet, Jeudi

    Heure Température Précipitation Vent Pression Humidité
    00:00 +24°C° 0 mm 2 m/s 731 mmHg 63%
    01:00 +24°C° 0 mm 2 m/s 731 mmHg 64%
    02:00 +24°C° 0 mm 2 m/s 731 mmHg 64%
    03:00 +24°C° 0 mm 2 m/s 731 mmHg 64%
    04:00 +24°C° 0 mm 2 m/s 731 mmHg 64%
    05:00 +25°C° 0 mm 2 m/s 731 mmHg 63%
    06:00 +25°C° 0 mm 2 m/s 731 mmHg 62%
    07:00 +28°C° 0 mm 3 m/s 731 mmHg 53%
    08:00 +30°C° 0 mm 3 m/s 731 mmHg 43%
    09:00 +34°C° 0 mm 4 m/s 731 mmHg 34%
    10:00 +36°C° 0 mm 4 m/s 730 mmHg 31%
    11:00 +37°C° 0 mm 4 m/s 730 mmHg 27%
    12:00 +40°C° 0 mm 4 m/s 730 mmHg 24%
    13:00 +39°C° 0 mm 3 m/s 730 mmHg 23%
    14:00 +40°C° 0 mm 3 m/s 729 mmHg 23%
    15:00 +40°C° 0 mm 2 m/s 729 mmHg 22%
    16:00 +38°C° 0 mm 2 m/s 729 mmHg 28%
    17:00 +36°C° 0 mm 2 m/s 729 mmHg 34%
    18:00 +35°C° 0 mm 2 m/s 729 mmHg 40%
    19:00 +31°C° 0.1 mm 2 m/s 730 mmHg 46%
    20:00 +29°C° 0.1 mm 1 m/s 730 mmHg 51%
    21:00 +27°C° 0.1 mm 1 m/s 730 mmHg 57%
    22:00 +26°C° 0 mm 1 m/s 731 mmHg 63%
    23:00 +24°C° 0 mm 1 m/s 731 mmHg 69%

    26 Juillet, Vendredi

    Heure Température Précipitation Vent Pression Humidité
    00:00 +23°C° 0 mm 1 m/s 731 mmHg 75%
    01:00 +22°C° 0.1 mm 1 m/s 731 mmHg 81%
    02:00 +19°C° 0.1 mm 2 m/s 731 mmHg 87%
    03:00 +18°C° 0.1 mm 2 m/s 731 mmHg 94%
    04:00 +18°C° 0 mm 2 m/s 732 mmHg 92%
    05:00 +18°C° 0 mm 2 m/s 732 mmHg 90%
    06:00 +18°C° 0 mm 3 m/s 733 mmHg 88%
    07:00 +17°C° 1.2 mm 3 m/s 733 mmHg 91%
    08:00 +17°C° 1.2 mm 3 m/s 734 mmHg 94%
    09:00 +17°C° 1.2 mm 2 m/s 734 mmHg 96%
    10:00 +17°C° 1.2 mm 2 m/s 734 mmHg 96%
    11:00 +18°C° 1.2 mm 1 m/s 734 mmHg 95%
    12:00 +18°C° 1.2 mm 1 m/s 735 mmHg 95%
    13:00 +18°C° 0.2 mm 1 m/s 735 mmHg 94%
    14:00 +18°C° 0.2 mm 2 m/s 734 mmHg 93%
    15:00 +18°C° 0.2 mm 2 m/s 734 mmHg 91%
    16:00 +18°C° 0.1 mm 1 m/s 735 mmHg 92%
    17:00 +18°C° 0.1 mm 1 m/s 735 mmHg 93%
    18:00 +16°C° 0.1 mm 0 m/s 735 mmHg 93%
    19:00 +15°C° 0 mm 0 m/s 735 mmHg 94%
    20:00 +15°C° 0 mm 1 m/s 735 mmHg 95%
    21:00 +14°C° 0 mm 1 m/s 736 mmHg 95%
    22:00 +14°C° 0 mm 1 m/s 736 mmHg 95%
    23:00 +14°C° 0 mm 1 m/s 736 mmHg 94%
    Voir plus